This is the latest recevied weather packets stored in our database for station/object ZS2JO. If no packets are shown the sender has not sent any weather packets the latest 10 day(s).
| Time | Temp. | Humidity | Pressure | Rain* | Wind** | Luminosity | Snow |
|---|---|---|---|---|---|---|---|
| 1778223895 | 14.44° C | 93% | 1021.8 hPa | 0 mm | - | 258 W/m² | - |
| 1778223593 | 14.44° C | 93% | 1021.9 hPa | 0 mm | - | 125 W/m² | - |
| 1778223291 | 14.44° C | 93% | 1021.7 hPa | 0 mm | - | 211 W/m² | - |
| 1778222989 | 14.44° C | 93% | 1021.9 hPa | 0 mm | - | 134 W/m² | - |
| 1778222686 | 14.44° C | 93% | 1022 hPa | 0 mm | - | 260 W/m² | - |
| 1778222383 | 14.44° C | 92% | 1021.8 hPa | 0 mm | - | 261 W/m² | - |
| 1778222081 | 14.44° C | 93% | 1021.9 hPa | 0 mm | - | 219 W/m² | - |
| 1778221778 | 13.89° C | 93% | 1021.7 hPa | 0 mm | - | 164 W/m² | - |
| 1778221476 | 13.89° C | 93% | 1021.6 hPa | 0 mm | - | 149 W/m² | - |
| 1778221173 | 13.89° C | 94% | 1021.6 hPa | 0 mm | - | 136 W/m² | - |
| 1778220870 | 13.89° C | 94% | 1021.6 hPa | 0 mm | - | 125 W/m² | - |
| 1778220566 | 13.33° C | 95% | 1021.4 hPa | 0 mm | - | 111 W/m² | - |
| 1778220264 | 13.33° C | 96% | 1021.4 hPa | 0 mm | - | 100 W/m² | - |
| 1778219960 | 12.78° C | 97% | 1021.6 hPa | 0 mm | - | 95 W/m² | - |
| 1778219656 | 12.78° C | 98% | 1021.6 hPa | 0 mm | - | 84 W/m² | - |
| 1778219353 | 12.78° C | 98% | 1021.6 hPa | 0 mm | - | 43 W/m² | - |
| 1778219051 | 12.78° C | 98% | 1021.6 hPa | 0 mm | - | 48 W/m² | - |
| 1778218747 | 12.78° C | 98% | 1021.5 hPa | 0 mm | - | 31 W/m² | - |
| 1778218444 | 12.22° C | 98% | 1021.5 hPa | 0 mm | - | 28 W/m² | - |
| 1778218142 | 12.78° C | 97% | 1021.5 hPa | 0 mm | - | 23 W/m² | - |
| 1778217839 | 12.78° C | 97% | 1021.5 hPa | 0 mm | - | 20 W/m² | - |
| 1778217535 | 12.78° C | 97% | 1021.5 hPa | 0 mm | - | 17 W/m² | - |
| 1778217231 | 12.78° C | 98% | 1021.3 hPa | 0 mm | - | 15 W/m² | - |
| 1778216927 | 12.22° C | 98% | 1021.3 hPa | 0 mm | - | 12 W/m² | - |
| 1778216624 | 12.22° C | 98% | 1021.3 hPa | 0 mm | - | 6 W/m² | - |
* Rain latest hour (hover to see other rain measurements)
** Current wind speed in m/s (hover to see current wind gust speed)